Temp
9 9 9 9 9 9 10 11 12 13 14 15 14 15 16 17 18 18 19 19 20 20 21 21 21 22 22 22 22 22 23 23 23 23 23 23 22 23 23 23 24 24 24 25 25 25 25 24 23 23 25 23 21 21 21 19 19 22 25 23 23 22 22 22 22 21 22 24 23 22 21 24 24 22 20 19 21 21 20 20 18 16 15 15 15 15 15 15
9 9 9 9 9 9 9 9 10 11 13 14 13 14 15 17 17 18 18 19 20 20 21 21 21 22 22 22 22 22 23 23 23 23 22 22 22 23 23 23 24 24 24 25 24 24 25 24 21 22 24 24 21 21 22 20 20 23 22 23 23 23 22 21 22 21 22 24 23 21 21 22 23 22 21 22 22 21 21 22 19 19 18 16 15 14 14 14
9 8 8 8 8 8 9 8 9 9 11 12 12 14 15 17 17 18 18 19 20 20 20 21 21 21 21 22 22 22 23 22 23 23 22 22 22 22 23 24 24 24 24 24 24 24 24 23 21 22 25 24 21 22 24 22 21 21 21 25 24 22 22 20 21 22 21 21 23 22 20 21 22 21 21 22 22 21 22 23 21 22 21 18 15 14 13 14
8 8 8 8 8 8 8 8 9 9 9 10 11 13 15 16 17 17 18 19 20 20 20 20 21 21 21 21 22 22 22 23 24 22 22 22 22 23 23 24 23 24 24 24 24 24 24 23 22 23 25 24 22 21 23 22 21 20 21 25 23 21 23 21 21 21 20 20 22 22 20 22 21 20 21 22 23 22 23 23 23 24 23 19 15 13 13 13
8 8 8 8 8 8 8 8 8 8 8 9 10 12 14 16 16 17 18 19 19 19 20 20 21 21 21 22 22 22 22 24 23 22 22 22 22 23 23 23 24 24 24 24 24 23 24 22 22 24 24 24 23 23 23 20 20 22 21 21 20 20 23 22 20 20 19 19 21 22 22 22 21 21 21 22 24 24 23 23 22 23 22 19 16 13 12 12
8 8 8 8 8 8 8 8 8 8 8 9 9 11 12 14 16 17 18 18 19 19 19 20 20 20 21 21 22 22 23 23 22 21 22 22 23 23 23 23 23 24 24 24 24 23 24 22 23 24 23 23 23 23 23 19 18 23 22 19 19 20 22 22 19 19 19 21 22 22 22 21 21 22 20 20 24 24 22 19 19 18 17 17 15 13 13 12
8 8 8 8 8 8 8 8 8 8 9 9 9 9 10 12 14 16 17 18 18 19 19 20 20 21 21 21 22 22 22 23 21 21 22 22 23 23 23 23 23 24 24 24 24 23 23 24 24 23 23 23 22 22 22 20 20 24 23 21 20 19 21 21 19 19 19 22 22 20 21 21 23 23 18 20 23 23 19 13 12 13 13 15 14 13 13 12
8 8 8 8 8 8 8 8 8 8 9 9 9 9 10 11 13 15 16 17 17 18 19 19 20 20 21 22 22 22 22 22 21 22 22 22 23 23 23 23 23 24 24 23 23 23 23 24 23 21 23 23 21 22 21 21 23 23 23 22 20 20 20 19 18 19 20 21 20 20 22 22 21 20 19 22 24 21 17 12 11 12 13 14 16 15 12 11
9 9 8 8 8 8 8 8 8 8 8 8 9 9 11 12 13 14 16 16 17 18 18 19 20 20 21 21 21 22 23 21 21 22 22 22 23 23 23 23 23 23 23 23 22 22 23 23 22 22 24 22 21 22 20 23 24 22 22 22 21 21 20 20 20 20 20 20 19 21 24 21 18 18 21 23 22 19 15 15 15 15 16 16 16 15 12 11
9 9 9 8 8 8 8 8 8 8 8 8 10 12 13 14 14 15 15 16 16 17 18 19 20 20 21 21 20 22 22 20 21 22 22 23 22 23 23 23 23 23 23 22 22 22 23 22 20 20 22 22 21 21 20 22 22 20 21 21 21 21 20 20 21 21 19 20 20 22 23 21 18 19 23 23 18 15 16 18 15 16 18 16 15 13 11 11
9 9 9 9 8 8 8 8 8 8 8 8 9 13 16 16 16 16 16 16 16 17 18 19 19 20 21 20 21 22 21 20 21 21 22 22 22 23 23 23 23 23 23 22 21 21 22 22 19 19 22 22 22 21 20 20 20 20 21 22 21 21 21 19 21 20 20 21 20 21 22 20 19 20 23 22 15 14 18 20 16 16 17 15 14 14 11 10
10 9 9 9 9 9 8 9 8 8 9 8 9 13 17 17 17 17 16 16 16 17 18 19 19 20 20 19 21 22 20 20 21 21 22 22 22 22 22 22 22 23 23 22 21 21 21 21 21 22 23 21 22 22 21 19 19 19 20 23 22 22 22 19 19 19 19 21 19 20 22 21 21 21 22 19 14 14 17 19 17 16 15 14 14 13 11 10
10 10 9 9 9 10 10 10 10 9 9 9 11 14 17 17 17 17 17 17 17 17 18 19 19 19 20 21 21 20 20 20 20 21 21 22 22 22 22 22 22 22 23 22 21 21 21 21 22 22 21 21 22 20 20 19 19 20 20 21 22 22 23 19 17 18 19 20 18 20 22 22 23 22 20 16 14 16 18 19 17 16 15 14 13 13 12 10
10 10 10 10 10 10 10 11 11 11 11 12 14 16 16 16 17 17 17 17 17 17 18 18 19 19 20 21 20 19 20 20 20 20 21 21 21 21 21 22 22 22 22 22 22 21 22 21 21 21 19 20 21 19 20 20 20 21 20 20 20 21 22 20 17 18 21 19 17 21 21 22 24 23 19 15 14 17 20 20 17 16 15 14 13 13 13 11
10 10 10 10 10 10 10 11 12 12 13 14 15 16 16 16 17 17 17 17 17 18 18 18 19 19 20 21 20 19 20 20 20 20 20 21 21 21 21 21 21 21 22 22 22 21 21 22 22 21 20 18 19 21 21 21 20 20 20 20 19 19 22 21 18 18 21 19 17 21 21 21 23 22 18 13 13 16 19 20 17 16 15 14 14 13 13 12
11 10 10 10 10 10 10 11 12 13 13 14 15 15 16 16 17 17 17 17 17 18 18 19 19 19 20 21 20 19 19 19 19 20 20 21 21 21 21 21 21 21 22 21 22 22 21 21 19 18 20 20 20 22 21 21 20 19 19 21 20 19 20 21 19 17 19 20 19 20 21 22 23 22 17 12 13 15 17 19 17 16 15 14 14 13 13 12
11 11 10 10 10 10 10 10 11 12 13 15 15 15 16 16 16 17 17 17 18 18 18 18 18 19 20 20 20 20 19 18 19 19 20 20 21 21 21 20 19 20 21 21 22 22 21 20 17 17 19 19 19 21 21 20 21 19 18 20 19 19 19 21 21 18 17 19 20 20 19 21 23 22 19 15 14 15 18 20 19 16 15 14 13 13 13 12
11 11 11 10 10 10 10 10 10 12 13 14 15 15 16 16 16 17 17 17 17 18 19 18 18 20 21 20 20 19 17 17 18 18 19 20 20 21 21 20 18 20 21 21 22 21 20 19 18 20 20 18 19 21 21 20 21 21 20 20 19 18 18 19 21 19 18 19 20 20 19 20 21 20 20 18 15 16 19 20 18 16 15 14 13 13 13 12
11 11 11 10 10 10 10 10 10 11 13 14 15 15 16 16 16 16 16 16 18 20 20 19 19 20 20 19 17 16 16 17 18 18 19 19 20 20 20 19 19 20 21 21 21 20 19 20 19 20 20 20 20 21 22 21 21 21 20 20 20 20 19 19 20 18 17 20 20 20 20 20 20 20 21 19 16 16 18 17 16 15 15 14 14 14 13 13
12 11 11 11 10 10 10 9 9 10 12 14 14 15 17 17 18 17 16 16 17 17 18 18 18 19 19 17 16 16 17 17 17 18 18 19 20 20 19 19 19 20 20 20 20 18 18 20 20 21 21 20 20 20 20 19 19 20 20 20 20 19 20 20 20 17 16 19 21 20 19 19 20 19 20 19 16 16 17 17 16 16 15 15 15 14 14 14
12 12 12 11 11 10 10 10 9 10 12 13 14 16 17 18 18 18 17 16 15 13 15 16 15 17 18 16 15 16 18 18 17 17 18 19 20 21 19 18 20 20 18 18 18 17 17 20 20 21 20 19 19 18 18 18 18 19 20 20 19 18 19 20 19 17 16 19 20 19 19 19 19 19 18 18 17 18 18 18 18 17 16 16 16 15 15 14
12 12 12 11 11 10 10 10 9 10 11 12 13 13 12 14 16 17 16 18 17 14 14 14 14 16 16 15 16 16 18 19 18 17 17 18 19 20 19 18 20 19 16 16 18 18 18 19 20 19 17 17 17 16 17 18 18 19 18 18 19 18 18 19 18 16 16 18 19 18 18 18 18 18 18 17 17 18 18 18 19 18 18 17 16 16 15 15
13 12 12 12 11 11 10 10 10 9 10 12 12 10 11 14 15 15 16 18 18 16 15 15 16 17 16 16 16 16 18 20 19 18 17 18 19 18 19 19 18 18 17 18 19 19 19 19 19 17 17 18 17 16 17 18 18 18 18 18 19 18 18 20 19 16 16 17 17 17 17 17 18 18 18 19 17 17 17 17 17 17 17 17 17 16 16 16
13 12 12 12 11 11 10 10 9 9 10 10 11 12 13 14 15 16 17 18 17 17 16 16 16 17 18 18 17 17 18 18 19 18 17 18 18 17 19 18 17 17 17 18 19 19 20 19 15 15 17 19 18 16 17 18 18 18 17 18 19 18 19 20 18 17 17 16 15 17 18 18 18 19 20 19 16 17 17 17 17 16 16 16 16 16 16 16
12 12 12 12 11 11 10 10 9 9 10 9 11 13 14 14 15 16 18 17 17 17 16 15 15 17 18 18 17 18 18 18 18 18 16 17 18 18 18 17 17 18 17 17 17 18 19 17 15 16 17 17 18 17 18 19 19 18 18 18 19 20 19 18 17 18 19 18 15 16 19 20 19 19 20 19 18 20 20 18 19 18 16 16 15 15 15 15
12 12 12 12 12 11 10 10 9 9 9 9 12 14 13 15 15 15 18 16 16 17 17 17 17 19 19 17 16 17 18 18 16 16 16 18 19 19 18 17 17 18 17 16 17 17 18 16 16 18 17 16 18 17 17 18 19 19 18 17 18 18 18 17 17 18 19 19 15 14 19 19 18 20 21 19 20 22 22 21 21 19 18 17 16 16 16 15
12 12 12 12 12 11 10 10 9 9 10 11 12 13 13 15 14 15 18 16 15 18 18 16 17 19 19 17 16 18 19 18 16 15 16 18 18 18 19 17 17 17 16 16 18 17 17 16 16 17 17 17 17 18 17 16 19 19 16 15 17 17 17 17 17 18 18 17 15 14 17 17 17 19 19 18 20 20 20 20 20 19 19 18 17 17 16 15
11 12 12 12 11 11 11 11 10 9 11 12 12 13 14 14 14 16 17 15 16 18 18 16 16 18 17 15 17 18 17 17 18 17 15 17 18 18 19 18 18 18 16 18 19 17 17 18 17 17 18 17 17 18 17 16 19 18 13 13 15 16 17 16 16 17 15 15 17 16 16 17 18 19 17 16 18 20 21 21 21 20 20 19 19 18 16 15
11 11 11 11 11 11 11 12 11 11 12 13 13 13 14 13 15 17 16 15 18 19 18 17 16 16 15 15 17 17 16 16 18 16 14 16 17 17 18 17 17 18 16 17 19 17 16 16 16 17 18 18 17 16 14 17 19 15 11 13 14 14 15 15 16 17 15 15 18 17 16 18 19 19 19 18 18 21 22 22 21 20 19 18 18 17 16 14
10 11 11 11 11 10 10 11 11 12 12 13 14 13 13 14 16 16 14 15 19 18 16 16 16 16 15 15 16 16 17 16 15 15 15 16 16 16 16 16 17 18 16 17 17 17 15 12 13 16 17 17 16 13 12 15 16 13 14 17 17 16 16 15 15 16 17 17 18 17 17 19 18 18 19 20 20 21 23 22 21 21 22 21 18 16 15 14
10 11 11 11 11 10 10 10 10 12 12 13 13 12 13 14 15 15 14 16 18 16 15 15 15 15 15 16 16 15 16 15 14 16 16 16 16 17 16 16 18 18 17 17 17 16 15 15 15 15 14 15 16 14 12 12 12 15 18 19 18 18 17 16 16 15 17 18 17 15 15 17 17 18 19 20 20 20 21 21 22 24 25 24 19 15 14 13
10 10 10 11 11 11 11 11 11 11 11 12 12 12 13 14 13 15 15 17 18 16 16 15 14 14 15 16 16 15 16 15 15 16 16 15 16 16 17 18 18 17 17 17 16 16 16 16 16 15 13 15 17 16 14 13 13 16 18 18 18 18 17 18 17 15 16 17 15 12 14 16 16 18 19 19 19 20 19 18 20 22 24 24 19 15 14 12
9 10 10 10 11 10 11 11 11 11 11 12 12 12 12 12 13 15 16 18 18 15 15 15 14 14 15 16 16 15 16 16 15 15 16 15 15 15 17 17 17 18 18 17 16 16 17 16 15 16 15 15 18 18 16 16 15 16 18 18 18 18 18 18 17 15 16 17 14 12 14 15 16 19 19 19 20 20 19 18 18 18 19 20 18 15 13 12
9 9 10 10 10 10 10 11 11 11 11 11 12 11 11 11 13 14 15 17 16 14 14 14 14 14 15 16 15 15 16 16 14 15 15 15 15 15 16 16 16 17 17 17 16 16 17 18 16 17 17 16 17 19 19 17 15 15 17 17 18 18 19 19 19 18 18 17 14 13 15 17 19 20 18 17 18 18 18 17 16 16 15 15 15 14 14 13
9 9 9 9 10 10 10 10 10 11 11 11 11 10 10 11 12 12 13 15 15 14 14 14 14 14 14 15 14 15 16 16 14 14 15 15 15 15 16 16 15 16 17 18 17 15 17 18 17 15 16 16 17 18 18 17 16 15 15 17 18 18 19 19 17 16 16 16 15 15 16 17 18 19 17 17 18 18 18 16 16 17 16 14 14 15 15 14
9 9 9 9 9 10 10 10 10 11 11 11 10 10 11 12 13 12 13 14 15 15 14 14 14 14 14 14 14 14 15 15 14 14 14 14 15 15 16 17 16 16 18 18 17 16 17 17 15 14 15 15 15 17 17 17 18 16 15 17 16 15 18 19 15 12 13 15 17 16 17 17 18 19 20 19 20 20 19 18 18 18 17 15 16 15 15 14
9 9 9 9 9 10 10 10 10 10 11 10 10 11 11 12 13 13 13 14 15 15 15 15 15 15 14 14 14 14 15 15 14 14 15 14 15 16 16 16 17 16 18 19 18 17 18 18 14 13 15 13 12 15 16 15 16 16 16 16 15 14 17 18 17 15 14 15 17 16 17 18 19 20 20 19 20 20 20 19 19 19 17 17 17 17 15 13
8 8 8 9 9 10 10 10 9 10 9 9 10 12 12 12 13 13 13 14 15 15 15 16 16 16 15 14 14 14 14 15 14 14 15 14 16 17 16 16 17 16 17 18 18 18 18 19 15 11 14 14 12 15 17 14 13 15 15 16 16 17 17 16 17 18 16 16 17 16 15 16 18 19 20 21 21 22 22 20 19 19 18 17 18 18 15 13
8 8 8 10 10 10 10 10 9 9 9 9 10 11 12 12 13 13 14 15 15 15 15 16 16 16 15 15 14 14 14 15 14 14 15 15 16 17 16 17 17 16 16 17 18 17 17 19 17 11 11 14 14 15 16 14 13 14 14 15 16 17 17 16 16 17 17 18 18 18 17 17 18 18 20 22 22 23 25 23 20 20 18 17 18 19 16 14
8 8 9 11 11 10 10 9 9 9 9 10 10 11 12 12 12 13 14 15 15 15 14 15 16 16 15 14 14 14 14 15 14 14 15 15 16 16 16 17 17 15 16 17 17 17 17 18 17 13 11 13 15 15 15 15 15 15 15 15 15 15 15 16 15 15 17 18 17 17 19 20 19 17 20 23 22 22 23 22 22 22 20 18 17 17 15 14
8 8 9 11 11 10 10 8 9 9 10 10 11 11 12 13 12 13 14 14 15 14 14 15 15 15 16 15 14 14 14 14 14 14 15 15 16 17 16 17 18 16 15 16 16 17 17 17 16 14 12 14 15 14 14 15 16 16 16 16 16 16 15 16 16 14 15 16 17 16 18 21 20 17 19 22 21 20 19 20 23 24 21 18 16 15 14 14
7 7 9 10 10 10 9 9 9 10 10 10 11 12 12 12 12 12 13 13 14 14 14 15 15 15 16 15 15 14 13 14 13 13 15 15 16 17 17 16 17 16 16 16 16 17 17 17 16 14 13 14 14 12 10 12 14 15 15 15 16 16 16 18 17 15 14 15 15 15 16 20 19 16 16 19 20 17 16 17 20 22 23 20 15 14 13 13
6 7 9 10 9 9 10 9 9 10 10 11 12 12 12 12 12 12 12 12 13 13 13 14 14 15 16 16 16 15 14 14 14 14 15 15 15 17 17 16 16 16 16 16 16 16 17 17 17 16 15 14 14 12 11 11 13 14 14 14 15 16 16 17 17 16 16 16 15 14 15 19 18 14 14 16 16 16 15 16 16 18 22 21 15 14 15 13
6 7 8 9 9 9 10 10 10 9 10 11 11 11 12 12 12 12 12 12 13 13 13 13 14 15 15 16 16 15 15 15 15 14 15 15 15 16 16 16 15 16 17 17 17 17 16 16 17 16 16 15 14 14 13 12 12 14 14 14 15 16 16 16 15 15 16 17 17 16 16 19 18 15 15 15 15 17 17 17 17 17 20 21 17 14 14 13
6 7 7 9 9 9 9 10 11 10 10 10 10 11 11 11 11 12 12 12 13 13 14 13 14 15 15 15 15 15 15 15 15 15 15 15 15 15 15 15 15 16 17 17 17 17 17 17 17 16 16 16 16 16 15 14 12 12 14 14 14 15 15 16 16 15 16 17 16 17 18 19 18 18 18 18 18 20 19 17 17 16 18 19 17 16 15 14
6 6 7 8 8 8 8 9 10 10 10 10 10 11 11 11 11 12 12 12 13 13 14 14 14 14 14 14 15 15 15 15 16 15 15 15 15 15 14 14 15 16 17 17 17 17 17 17 17 17 17 17 18 17 15 14 13 13 14 14 14 14 14 16 16 15 16 16 15 17 18 19 19 19 19 19 19 21 21 19 18 17 18 17 17 17 16 14
5 6 7 8 8 8 8 8 9 9 10 11 11 11 11 11 11 12 12 12 13 13 13 13 13 14 14 14 14 14 15 15 15 15 14 14 15 15 14 13 14 15 16 16 16 16 16 16 16 17 17 18 19 17 14 15 16 15 14 14 14 14 14 14 15 16 17 16 16 17 18 17 18 19 19 20 20 20 21 21 20 20 19 18 17 17 16 13
5 6 8 8 8 8 8 8 9 9 9 10 10 11 11 11 11 11 11 12 12 13 12 13 13 13 14 15 14 14 14 14 14 14 15 14 14 14 14 14 14 14 15 15 15 16 16 16 17 17 17 18 19 17 14 15 16 15 15 14 14 13 13 14 15 16 17 16 17 18 18 17 18 19 19 19 20 21 22 22 20 19 18 18 18 18 19 17
5 5 6 7 7 7 8 8 9 9 9 9 9 9 10 11 11 12 11 11 11 12 12 12 12 13 13 14 14 14 14 14 13 14 14 14 14 14 15 15 14 13 13 14 14 15 16 16 16 16 16 16 17 16 15 15 15 15 14 14 14 13 13 14 15 16 16 16 17 18 17 17 18 19 19 19 19 21 21 20 19 17 18 20 19 19 20 19
5 5 5 6 6 6 7 7 7 8 9 9 8 8 9 9 10 11 12 11 11 11 12 12 12 13 13 13 13 13 14 15 14 15 15 14 14 14 14 15 15 12 11 13 14 14 14 15 16 16 15 15 16 16 15 15 15 15 14 14 14 14 13 14 14 15 15 15 16 16 16 16 17 18 19 18 18 19 19 19 18 18 19 19 19 18 18 18
5 5 5 5 5 6 7 7 7 7 8 8 9 9 9 9 10 11 11 12 12 12 12 12 12 13 13 13 13 13 14 15 15 15 15 14 14 14 14 15 15 13 12 13 14 14 13 14 15 15 14 14 15 15 15 14 14 14 14 14 14 14 14 14 14 15 15 15 15 15 15 16 17 18 19 18 18 18 19 18 18 18 17 17 18 18 17 17
5 5 5 4 5 6 6 7 7 7 7 8 9 9 10 10 10 10 10 11 12 12 12 12 12 13 12 12 12 13 14 15 15 15 14 14 14 14 14 14 14 14 13 13 13 13 13 13 13 13 12 13 14 14 14 14 13 13 14 15 15 14 14 14 14 14 15 15 15 15 16 17 18 17 18 17 17 18 18 18 18 17 17 16 16 16 16 16
Height
799 799 798 798 798 798 798 798 799 799 800 800 801 801 801 801 802 802 803 803 803 804 804 805 804 804 804 804 804 803 803 803 802 802 802 802 802 803 802 802 803 802 802 801 801 801 801 802 801 801 800 802 807 809 808 810 813 813 822 830 832 840 838 833 836 835 831 828 828 831 830 830 831 832 832 832 833 833 835 834 835 835 834 834 833 832 832 833
799 799 798 798 798 798 798 799 799 799 799 800 801 801 801 801 802 802 802 803 803 803 804 804 804 804 803 804 804 803 803 802 802 802 802 802 802 802 802 802 802 802 802 801 801 802 802 804 803 802 803 806 810 810 810 813 814 819 829 831 830 834 831 828 829 829 830 827 827 831 832 831 830 831 831 832 834 835 834 833 835 834 832 833 833 832 833 833
799 798 798 798 798 798 798 799 799 799 799 799 800 800 801 801 801 802 802 803 802 803 803 803 804 803 803 803 803 803 802 802 802 802 802 802 802 801 802 802 802 802 801 801 802 802 803 804 803 804 806 809 814 812 812 814 816 824 828 826 827 828 827 829 828 827 829 828 828 830 833 832 830 831 831 832 835 836 834 831 832 831 830 831 833 833 833 834
798 798 798 798 798 798 798 798 798 799 799 799 799 800 800 800 801 801 802 802 802 803 803 803 803 803 804 803 803 803 801 803 804 802 801 801 801 801 801 802 802 802 802 802 802 802 803 803 803 805 808 812 816 815 816 817 818 825 826 823 826 828 826 827 827 827 829 831 829 830 833 831 830 832 831 832 834 835 832 827 826 826 825 829 832 833 833 834
797 797 797 798 797 798 798 798 798 798 798 798 799 799 800 800 801 801 801 802 802 803 802 803 803 803 803 803 804 802 803 809 805 800 801 801 801 801 802 802 802 802 802 802 802 803 802 803 804 807 811 814 816 816 818 822 821 823 827 827 828 829 826 824 828 828 829 831 830 831 831 830 831 831 831 832 832 829 825 823 823 822 823 826 829 831 833 834
797 797 797 797 797 797 797 797 797 797 798 798 798 799 799 800 800 800 801 801 802 802 802 803 803 803 803 803 803 801 805 811 804 800 802 801 801 802 802 802 802 802 802 802 803 803 804 805 807 811 815 817 820 820 820 824 823 822 827 830 830 829 825 825 828 828 829 829 828 829 828 830 831 830 833 832 826 823 822 823 824 823 824 825 827 829 831 832
796 796 797 797 797 797 797 798 797 797 797 798 798 799 799 800 800 800 801 801 802 802 802 803 803 803 803 803 803 802 806 806 801 801 802 801 802 802 802 803 802 802 802 803 803 804 806 807 809 815 817 819 823 822 822 823 822 821 825 827 828 830 826 826 829 828 829 826 827 830 828 830 829 829 835 830 821 821 823 824 824 823 824 825 827 829 829 829
796 796 796 797 797 797 797 798 798 798 798 798 798 799 799 800 800 800 801 801 801 802 802 803 803 803 803 803 803 805 806 803 800 801 801 802 802 802 803 803 802 803 803 803 804 804 807 809 813 816 818 820 822 822 823 822 820 821 824 826 827 829 827 828 829 828 829 827 830 830 827 830 831 833 834 825 818 821 824 824 824 824 825 826 826 827 828 828
797 797 797 797 797 797 797 798 799 798 798 798 798 799 799 799 800 800 800 801 801 802 802 802 803 802 803 802 804 808 806 801 801 801 801 802 802 803 803 803 803 803 803 804 805 804 807 811 814 814 816 821 821 822 824 822 823 824 824 825 826 826 827 828 827 827 829 829 830 828 827 831 834 836 828 819 818 822 824 824 824 825 824 825 825 825 826 827
797 797 797 797 797 797 797 798 798 798 798 798 798 799 799 799 800 800 800 801 801 802 802 802 802 802 803 802 806 809 804 800 801 801 802 802 802 803 803 804 804 804 804 805 805 805 807 809 812 812 813 819 821 824 826 824 825 826 826 826 826 827 828 827 825 827 829 828 830 828 829 831 834 836 824 816 821 824 823 823 825 824 823 824 825 825 825 825
797 797 797 797 797 797 797 797 798 798 798 798 799 799 799 799 800 800 801 801 801 801 802 802 802 802 802 802 807 808 801 800 801 801 802 802 802 803 803 804 804 805 805 806 807 807 807 808 809 811 813 818 820 824 826 825 826 827 826 825 827 827 827 830 827 828 829 828 830 829 830 832 835 834 821 817 824 825 822 821 825 824 823 825 825 826 826 825
797 798 798 798 797 797 797 797 798 798 798 798 799 799 799 800 800 800 801 801 801 801 802 802 802 802 802 804 806 804 801 801 801 801 802 802 803 803 804 805 805 805 805 807 808 807 808 808 808 811 815 818 821 825 825 826 828 827 827 826 827 826 826 830 830 831 830 829 830 830 833 834 832 826 816 820 826 825 823 821 824 825 825 826 826 826 825 825
797 797 798 798 798 798 798 798 798 798 798 798 798 798 799 799 800 801 801 801 801 802 802 802 802 802 803 804 803 801 801 801 801 801 802 802 803 804 804 805 805 806 806 807 808 809 809 809 809 812 816 818 822 825 824 827 828 827 830 831 831 830 828 830 834 834 831 831 831 832 837 831 824 820 817 824 827 824 823 821 823 825 825 826 826 826 825 824
796 797 798 798 798 798 798 798 798 798 798 799 798 798 798 799 800 800 801 802 801 802 802 802 802 802 804 804 801 800 801 801 801 802 802 803 803 804 805 806 806 806 807 807 808 809 809 809 810 812 817 820 822 823 825 829 829 830 833 836 842 839 830 829 835 833 829 833 832 832 839 830 818 817 819 826 827 823 820 819 823 824 825 826 825 826 824 823
796 797 798 798 798 799 799 798 798 799 799 799 798 798 798 799 799 800 801 801 801 802 802 802 802 802 806 804 799 800 800 800 801 801 802 803 803 804 805 806 807 807 807 808 809 809 810 810 812 816 821 822 823 825 829 832 833 837 836 839 850 846 834 829 834 835 829 832 833 832 837 832 820 816 820 827 827 825 820 819 823 824 824 825 824 825 823 822
796 797 798 798 798 799 799 799 798 798 798 798 798 798 798 799 799 800 801 801 802 802 802 803 802 803 807 804 800 800 800 800 801 801 802 803 803 804 805 806 807 807 808 809 809 810 810 812 819 825 824 824 826 827 833 837 838 843 843 840 846 846 841 834 832 837 834 832 834 832 834 829 819 816 822 829 827 826 823 819 821 822 822 824 823 824 823 822
796 797 797 798 798 799 799 799 798 798 798 798 798 798 798 799 799 800 800 801 802 802 802 803 802 804 805 802 800 800 799 800 800 802 802 803 804 804 805 807 807 808 808 809 809 811 812 816 825 828 827 832 833 830 838 845 841 844 848 845 846 848 847 838 831 836 837 834 833 834 836 829 818 816 820 825 827 826 822 816 817 820 822 822 822 822 821 821
795 796 797 798 798 799 799 799 798 798 798 798 798 798 799 799 800 800 801 801 802 802 803 803 803 808 806 800 800 800 799 800 800 802 803 803 805 805 806 807 808 809 810 812 812 813 817 821 826 828 831 836 835 833 838 842 836 836 842 842 845 848 849 844 834 835 837 834 834 836 836 829 821 818 816 819 826 825 818 815 816 819 820 820 820 820 818 818
795 796 797 797 798 799 799 799 798 798 797 797 798 798 799 799 800 800 801 801 801 802 803 802 802 807 806 799 800 800 799 801 801 802 803 804 805 806 807 808 810 810 814 818 817 819 821 823 829 831 832 833 831 831 830 831 831 832 837 838 840 841 843 842 837 837 838 834 834 834 832 826 821 819 814 815 824 823 818 818 818 818 818 818 818 815 814 814
793 795 796 797 798 798 799 799 799 798 797 797 798 798 799 800 802 802 803 802 800 800 801 800 799 801 801 800 801 800 800 802 802 803 803 804 805 806 808 810 812 814 818 821 821 824 825 827 832 829 826 827 828 830 830 834 837 836 839 840 842 843 839 836 835 838 840 835 831 830 831 828 822 819 815 816 822 822 819 817 815 814 814 813 812 810 808 807
792 794 795 796 797 798 799 799 798 798 797 797 797 798 799 801 803 803 803 801 799 799 800 801 801 800 799 801 801 800 801 802 803 803 803 804 805 807 812 814 816 820 825 827 826 827 828 831 829 821 823 826 829 834 835 837 838 837 839 840 843 847 840 833 835 838 840 837 831 831 833 828 822 818 815 817 819 815 812 811 808 808 808 807 805 803 803 802
791 792 793 795 796 798 798 798 799 798 798 798 798 798 800 801 801 802 802 802 799 797 799 801 802 801 800 800 800 800 801 803 805 804 803 805 805 808 814 816 818 823 828 829 827 830 834 832 822 820 828 831 833 838 836 836 839 839 843 845 844 846 842 835 837 842 840 836 833 834 834 828 822 819 814 814 813 808 806 805 801 801 800 799 799 799 799 800
790 790 793 794 795 797 798 798 798 798 798 798 798 799 800 800 801 801 802 804 801 796 798 800 800 800 800 800 799 800 801 802 804 804 803 804 806 810 813 816 821 825 828 826 825 832 835 827 821 824 828 828 833 839 838 838 840 840 844 845 843 845 843 833 834 842 840 839 837 837 838 830 821 817 809 805 807 806 804 802 799 798 795 792 792 794 795 795
788 789 791 792 795 796 797 799 798 798 799 799 799 799 800 800 801 802 801 806 805 798 795 796 797 797 796 797 796 799 801 801 800 800 801 803 807 812 811 816 823 826 827 824 825 828 824 822 827 829 827 825 831 839 838 836 839 841 843 842 839 839 839 835 836 840 839 842 843 839 835 825 817 815 806 802 807 805 800 799 796 793 791 789 790 791 790 790
786 788 789 791 794 794 797 798 797 798 798 799 799 798 801 800 801 802 802 810 810 800 796 794 794 792 790 793 795 797 800 800 797 797 798 800 804 809 812 816 820 823 827 828 830 829 822 823 828 828 829 829 830 835 835 833 836 838 837 835 833 831 834 838 840 840 838 840 844 843 835 821 815 814 806 804 806 797 792 793 789 785 786 787 788 786 785 786
784 787 788 790 792 793 796 797 797 798 798 799 798 798 801 800 802 802 804 818 816 800 796 795 792 787 784 791 794 797 803 799 794 794 796 798 799 802 810 816 817 820 825 828 830 828 823 825 825 824 829 831 831 834 834 833 836 838 834 832 833 834 837 840 841 842 841 839 845 848 840 830 820 808 802 804 802 793 788 786 782 781 781 782 783 781 781 783
783 785 787 789 791 792 794 795 796 797 797 798 796 798 801 799 803 801 806 827 817 791 790 794 790 783 781 787 789 795 803 797 793 796 796 797 799 799 807 816 818 819 823 827 828 823 820 824 827 825 827 831 833 831 830 833 834 835 836 836 834 836 838 840 842 843 843 844 847 847 844 843 831 809 804 806 802 797 792 785 780 777 776 776 777 777 777 779
782 784 786 788 789 790 792 793 794 795 796 795 794 798 798 799 804 800 813 833 809 779 782 788 785 781 782 787 785 790 797 792 792 798 797 797 800 800 805 812 813 813 817 820 821 820 817 818 822 822 824 829 828 823 825 829 828 832 841 842 837 838 839 841 844 845 852 852 843 841 845 844 827 808 808 811 804 797 788 780 776 772 772 772 772 772 774 776
782 783 784 787 788 790 791 791 792 793 794 794 794 797 797 801 802 802 823 828 792 773 779 781 782 784 787 791 789 790 793 793 795 798 798 800 800 801 806 810 810 813 815 814 814 816 819 820 820 819 820 821 822 826 829 824 824 835 845 842 840 844 844 846 845 843 854 853 836 834 841 837 819 802 803 809 804 794 781 775 773 770 770 771 770 772 773 775
782 782 783 786 787 788 790 790 791 792 794 794 795 796 799 802 801 814 834 817 781 777 783 781 784 787 789 794 796 794 793 797 799 799 802 803 802 803 806 809 810 814 817 816 816 818 821 825 823 819 817 817 821 833 837 829 830 837 837 833 836 842 842 848 850 847 852 844 826 827 831 830 824 807 797 795 790 783 775 771 771 768 765 766 770 773 773 774
782 782 782 784 784 785 787 789 790 791 794 794 795 798 800 803 808 819 822 797 777 783 785 785 788 788 788 789 793 796 795 799 800 799 802 805 806 807 808 810 812 818 822 819 818 820 821 822 821 818 819 819 820 830 837 838 838 834 828 829 835 839 842 847 850 852 852 836 825 835 835 832 828 807 792 788 781 778 775 771 768 763 759 760 766 772 773 775
781 781 781 782 782 783 784 785 787 790 793 793 796 800 800 807 814 810 799 785 781 782 780 785 789 788 788 786 788 794 795 798 800 798 800 805 808 806 805 806 808 818 824 819 819 821 818 817 818 818 820 819 815 825 837 839 838 832 829 834 840 846 849 846 848 858 854 836 834 844 839 833 822 797 788 788 778 774 775 774 770 764 759 758 764 771 772 774
780 780 780 781 781 781 782 784 786 789 792 792 797 802 806 813 808 794 784 779 779 780 778 782 786 788 790 788 791 794 792 796 799 799 799 802 807 806 802 801 802 806 810 814 821 824 818 816 817 815 816 814 810 817 827 831 834 833 829 832 838 848 853 846 850 859 847 831 837 847 839 828 813 789 779 777 769 767 769 771 770 767 764 761 763 770 772 774
779 779 779 779 779 780 781 784 785 786 790 793 797 804 815 816 799 788 784 775 774 782 782 782 786 789 790 788 790 791 791 796 799 799 800 803 808 808 804 803 802 802 805 813 819 821 819 812 808 808 807 807 805 805 808 817 829 830 825 827 829 833 835 832 834 836 828 826 837 844 833 812 794 778 773 772 770 770 768 767 769 768 767 767 767 769 769 771
778 778 778 777 778 779 781 783 784 786 789 792 798 805 809 804 795 793 789 777 777 782 782 784 787 790 792 791 792 789 787 793 799 800 802 803 803 802 799 798 800 801 802 808 811 816 818 805 799 803 802 801 802 801 803 812 825 831 829 828 825 820 817 824 836 838 838 838 835 831 818 796 782 773 771 773 769 767 767 768 769 764 763 767 768 766 766 766
777 776 776 775 775 777 779 781 783 786 786 790 801 804 794 785 784 787 782 776 778 780 783 787 787 790 794 792 793 792 787 790 797 801 802 802 799 796 794 789 791 794 791 795 803 809 813 806 804 808 804 804 805 802 804 806 813 827 831 824 822 821 814 821 841 853 855 843 821 811 803 789 784 773 762 764 763 759 761 763 763 758 758 764 763 762 763 764
775 775 774 774 774 775 777 779 781 784 786 790 796 792 784 778 775 777 775 773 775 776 780 784 783 786 792 792 792 792 790 791 797 798 799 802 796 789 789 784 783 786 781 783 792 795 798 801 807 810 805 809 813 807 807 808 809 820 824 817 819 825 820 820 831 841 851 843 817 807 801 789 786 775 762 764 764 759 758 758 757 756 757 760 757 757 761 763
774 774 772 769 771 774 775 778 780 783 787 793 790 781 779 779 771 770 772 770 771 774 776 778 777 778 784 789 789 790 790 789 796 797 795 799 790 776 780 782 780 781 778 780 788 790 792 796 807 817 812 810 813 808 808 814 813 813 813 812 814 819 821 827 830 827 834 836 816 805 806 796 786 774 761 758 757 753 751 753 754 753 754 756 752 752 757 761
773 774 770 765 767 771 773 776 779 783 788 792 789 778 773 772 767 766 769 767 768 773 775 772 772 775 779 782 783 787 788 785 792 795 789 792 785 770 771 774 774 778 778 781 787 789 792 794 802 817 817 811 812 809 807 812 815 815 814 814 814 814 816 822 826 822 821 823 813 803 795 781 773 767 755 749 749 745 742 744 748 748 749 752 750 749 754 758
774 775 769 762 764 767 770 775 778 782 783 781 779 773 766 764 766 766 766 764 765 769 771 769 770 773 775 778 781 782 783 782 787 789 783 783 780 770 768 768 770 778 780 782 786 788 792 794 798 814 821 814 808 802 798 800 806 810 811 815 815 817 820 819 822 822 817 816 820 815 791 762 756 758 747 741 743 742 740 741 743 743 745 749 750 750 753 755
775 776 769 762 764 765 769 776 778 779 779 774 771 769 764 762 764 765 763 764 764 765 766 766 768 769 769 775 777 777 780 782 783 784 780 778 775 767 764 763 765 774 782 788 788 786 789 792 798 811 817 807 798 796 797 795 794 795 798 801 801 805 814 816 819 823 821 815 816 819 796 754 744 752 745 737 739 744 747 743 739 739 742 748 750 751 754 754
775 774 766 762 764 764 768 775 774 773 774 770 764 763 762 761 763 764 764 765 766 766 766 765 764 764 764 767 769 773 779 780 781 782 776 771 767 761 759 760 761 766 774 782 781 777 781 787 794 803 805 800 796 801 807 803 795 795 795 793 792 795 798 801 806 814 821 819 814 822 807 757 739 753 751 740 741 748 752 747 742 740 738 744 751 752 753 754
774 770 764 763 764 763 766 771 771 770 768 762 758 757 758 759 761 763 764 767 767 766 767 765 762 761 761 761 763 769 773 774 776 776 770 768 764 757 757 759 762 764 767 774 776 775 780 786 790 794 796 796 797 800 805 806 801 798 798 796 795 794 790 791 797 800 807 808 806 821 811 760 741 756 755 749 750 751 752 749 749 748 739 741 749 750 750 752
771 768 765 764 765 762 761 762 764 766 764 760 758 759 758 758 759 761 762 763 763 762 763 763 761 759 758 758 759 762 765 768 770 768 765 766 761 756 756 758 761 762 761 764 766 769 778 784 786 792 796 796 798 798 799 802 803 798 795 797 793 790 793 797 799 802 801 793 791 804 794 756 745 753 751 751 752 746 747 746 746 748 741 740 746 748 749 751
771 769 765 763 763 762 758 754 756 760 760 760 760 760 760 758 756 756 757 757 757 757 759 759 758 757 757 758 757 758 759 761 762 762 762 762 758 757 757 757 759 758 755 755 755 759 769 774 777 787 793 790 786 783 782 789 802 800 794 794 792 791 795 794 796 804 798 785 785 787 771 750 747 748 744 746 746 739 742 745 744 745 743 742 744 745 746 749
772 770 765 763 762 760 757 754 756 757 755 757 758 756 758 757 754 752 753 755 755 755 755 755 756 756 757 758 758 758 757 755 755 758 759 758 756 755 756 757 757 754 752 755 756 759 765 766 766 770 773 769 762 763 769 777 789 793 788 790 792 792 792 790 794 797 786 782 784 771 756 751 749 747 744 743 743 738 737 741 743 742 741 742 743 741 743 747
771 766 762 761 760 759 757 755 756 756 752 751 751 749 751 753 751 751 752 752 752 753 753 753 754 755 755 756 758 757 756 755 755 755 756 755 753 753 755 757 757 752 753 756 757 761 766 766 764 762 760 754 747 757 770 769 771 777 780 785 789 790 792 793 789 777 771 781 775 753 754 758 746 742 745 741 740 739 736 737 738 736 736 739 740 740 741 745
768 762 757 757 757 757 755 751 751 753 753 752 748 743 744 748 749 749 751 750 749 750 752 752 752 752 750 750 754 754 754 757 757 753 752 753 754 755 755 757 756 753 755 759 758 760 764 763 760 760 760 752 746 757 768 764 761 767 771 776 781 786 791 789 779 765 764 773 758 740 752 754 735 735 742 738 736 735 731 732 733 735 737 736 736 736 735 739
764 762 759 758 758 755 753 750 750 751 752 754 754 749 745 745 744 743 746 750 750 748 749 750 749 748 747 747 749 751 750 753 755 752 749 751 753 754 754 754 754 755 758 760 759 759 761 760 758 758 761 756 751 757 764 763 762 765 767 769 773 779 782 777 768 759 761 765 751 743 753 745 728 730 735 733 734 732 730 732 733 734 734 731 731 733 732 734
760 760 759 760 759 756 754 754 754 752 749 750 753 751 749 748 744 740 739 743 747 746 746 746 743 741 744 745 746 746 743 743 745 743 744 749 752 753 752 748 749 758 764 762 760 761 763 762 758 759 765 762 753 753 760 762 762 762 764 768 769 771 770 765 759 759 766 767 753 751 757 743 724 725 729 731 734 733 732 733 731 731 730 728 730 730 731 732
755 756 757 761 760 756 754 753 754 755 752 748 748 746 746 747 745 742 739 735 736 738 739 741 740 738 740 743 744 742 739 738 738 735 736 743 745 745 747 745 746 756 763 760 759 760 763 766 763 764 771 764 751 750 757 760 763 765 765 764 763 760 756 755 757 758 760 759 755 759 759 737 720 723 728 728 731 732 730 729 729 728 728 729 728 727 728 730
754 755 757 762 760 754 753 753 753 753 749 745 744 743 741 740 740 742 743 737 732 731 732 734 736 736 737 738 737 734 731 731 732 733 736 741 741 740 744 746 746 749 754 757 758 757 759 765 768 771 772 761 749 752 758 762 769 767 756 745 743 745 748 752 755 751 747 748 751 752 740 720 716 726 727 726 730 729 726 724 724 724 725 727 728 727 727 727
Wind_Speed
3 2 2 2 2 2 2 1 2 2 3 3 2 3 3 4 4 4 4 4 4 5 4 5 5 6 7 7 7 7 7 6 5 2 0 1 2 3 3 4 3 4 4 5 6 4 3 6 8 9 5 4 5 2 3 3 3 5 4 4 2 4 4 6 8 7 5 3 5 4 3 7 4 2 1 1 5 3 1 3 3 4 3 3 3 2 10 19
3 3 2 2 2 1 1 0 0 1 2 2 2 2 3 4 3 3 4 4 4 5 4 5 5 6 6 6 6 7 7 6 3 1 1 1 3 3 2 2 2 4 5 5 7 6 4 4 7 8 6 3 3 3 3 2 4 4 3 3 3 6 5 6 8 6 2 2 4 3 1 4 5 4 2 1 2 3 0 3 5 6 5 1 1 6 14 17
3 3 2 3 2 1 1 0 1 1 0 1 2 2 3 3 3 3 3 4 4 4 4 5 5 6 6 6 6 7 6 3 1 1 1 0 1 1 2 2 3 4 5 6 6 6 4 1 3 5 5 4 2 3 4 4 2 2 4 3 5 6 4 4 7 7 4 3 5 3 1 1 3 2 1 3 2 1 4 5 1 4 8 4 3 9 13 14
4 2 2 2 2 2 1 0 0 1 1 1 1 2 2 2 2 3 3 3 3 3 3 4 5 5 5 6 6 6 5 3 0 1 2 1 2 4 5 5 4 5 6 6 5 5 4 3 4 5 4 3 4 4 4 3 1 2 4 3 5 4 1 3 6 6 5 4 5 4 3 1 3 2 2 5 4 3 7 8 8 9 9 8 6 9 13 13
4 2 2 2 2 2 1 0 1 1 2 2 2 1 1 1 1 2 2 2 2 2 3 3 4 4 5 5 5 6 4 4 2 1 2 2 4 5 6 6 5 5 6 6 5 4 4 4 6 6 5 3 5 5 2 3 2 3 1 3 4 3 2 2 5 4 4 4 5 5 4 3 1 1 3 8 6 6 7 7 9 9 8 10 10 11 12 11
5 3 2 1 1 1 0 0 1 1 2 2 3 2 1 1 1 1 1 1 1 1 2 2 3 4 4 4 5 4 3 1 3 1 2 3 5 5 6 6 6 6 6 6 5 4 4 5 7 4 4 3 3 3 1 4 2 3 1 1 3 3 0 1 3 4 5 7 6 5 3 2 2 2 2 7 9 8 6 5 6 7 7 11 11 12 11 11
5 4 3 2 1 1 0 1 2 2 2 2 3 3 3 2 1 1 1 1 1 1 1 2 3 3 3 3 4 4 3 2 3 3 3 5 5 4 6 5 5 6 6 7 6 4 4 7 6 3 4 4 0 2 1 4 4 5 1 2 2 3 2 1 2 3 5 6 5 3 2 2 4 3 1 4 11 7 5 4 5 6 7 11 10 11 12 13
5 4 4 2 1 1 1 1 2 3 2 2 2 3 3 2 2 1 1 1 1 1 0 1 2 2 3 2 2 4 2 3 2 5 5 5 5 4 4 4 5 6 7 9 7 3 3 6 4 4 4 2 3 2 2 3 4 5 2 2 1 2 4 2 3 4 4 2 1 3 2 2 5 3 1 8 11 6 4 2 1 2 7 9 9 10 11 12
5 3 3 3 2 1 0 1 2 3 3 3 3 3 3 2 1 1 1 1 1 1 0 1 1 2 2 2 5 2 4 3 3 6 5 5 5 4 3 5 6 6 7 9 6 3 2 2 3 3 3 2 3 2 3 2 1 0 3 1 1 2 5 3 2 4 3 0 2 3 2 4 2 1 4 10 8 3 1 4 3 5 7 8 8 10 10 10
3 1 1 3 2 1 1 0 1 2 3 4 4 3 3 2 1 1 1 1 1 1 1 1 1 2 2 3 6 1 4 2 3 6 5 5 5 3 3 5 5 5 7 7 6 6 3 4 4 4 5 3 3 2 2 2 1 2 3 2 3 2 5 3 2 3 3 0 2 3 5 5 4 2 5 6 2 1 4 3 1 5 7 8 7 8 10 11
3 2 2 2 1 1 1 0 1 2 3 4 5 4 3 3 1 1 0 1 1 2 2 2 2 2 2 4 5 3 3 1 4 5 5 5 4 2 4 5 4 5 6 7 6 6 4 6 7 5 2 1 2 3 2 2 2 2 2 2 3 5 3 2 2 3 1 1 3 5 3 5 4 1 7 3 1 1 4 3 3 5 6 6 6 6 7 10
2 2 3 4 2 1 2 1 1 2 4 4 5 4 4 3 3 2 1 2 2 2 2 3 3 2 2 4 3 5 2 1 3 4 5 5 4 3 4 5 5 6 5 6 5 5 5 4 7 5 0 2 2 2 1 2 2 1 2 1 6 8 4 2 1 2 1 1 3 5 1 5 3 8 8 2 0 1 3 5 4 5 6 5 6 5 6 9
2 2 2 3 3 3 3 3 2 2 4 5 5 4 4 3 2 2 1 2 2 2 2 3 3 2 3 1 2 3 2 1 3 4 5 5 4 4 5 4 5 7 6 8 5 5 5 2 6 6 2 4 2 1 3 3 3 1 3 3 3 7 5 4 2 1 3 3 2 3 2 6 8 13 7 2 2 4 2 6 5 6 5 5 6 5 6 8
3 2 1 2 2 3 4 4 4 4 4 6 6 5 5 2 0 1 0 1 2 2 2 4 3 3 3 2 3 1 3 2 2 5 5 5 5 5 5 5 6 7 8 9 7 6 6 4 7 7 3 4 2 1 4 6 4 1 2 2 3 2 4 6 2 3 5 2 1 4 3 6 9 11 6 3 3 6 5 7 5 6 5 6 6 6 7 8
4 3 2 1 1 2 3 3 4 5 5 6 6 5 3 1 1 1 2 2 2 2 3 4 3 4 3 3 3 2 3 3 3 5 5 5 6 5 5 6 7 8 8 9 9 9 7 6 7 5 1 2 3 4 4 4 4 3 1 3 3 1 5 8 3 4 3 1 2 4 3 7 9 10 6 3 3 5 6 7 6 7 7 7 6 6 7 8
5 4 3 2 2 2 2 3 4 4 4 4 5 4 2 2 2 2 3 3 4 3 3 4 3 5 2 2 2 3 3 3 4 5 6 6 6 5 7 7 7 8 8 8 7 7 8 7 5 3 1 2 5 5 4 4 4 4 1 2 2 1 3 6 3 2 1 1 1 1 3 4 5 7 6 3 4 4 5 8 7 8 8 7 6 7 6 7
7 6 4 3 2 2 2 3 4 3 2 2 3 2 3 3 3 3 4 6 6 5 5 4 3 4 1 2 2 4 2 4 5 7 7 6 5 7 8 6 6 7 8 7 5 4 7 6 1 1 3 3 3 5 4 2 4 4 2 1 3 2 2 3 4 3 2 2 2 2 3 7 7 7 8 3 4 4 6 9 9 8 7 7 7 7 7 8
8 7 6 5 4 2 3 3 4 4 2 2 2 3 5 5 4 5 7 8 7 6 5 3 3 3 2 3 2 2 2 4 7 8 8 8 7 7 7 5 5 7 6 5 4 3 4 4 2 1 3 3 2 5 3 4 4 3 2 1 2 2 2 3 4 2 1 1 3 2 4 11 12 11 11 6 5 6 8 9 8 7 7 7 7 8 9 9
8 7 7 6 4 3 3 4 4 4 2 2 4 7 7 6 5 5 5 5 4 3 1 2 3 3 3 3 1 2 5 6 7 7 7 9 8 8 9 7 6 6 5 1 2 3 2 3 4 2 1 2 4 6 7 7 6 6 5 4 4 3 3 5 5 5 3 1 4 6 7 11 12 11 11 7 5 6 9 8 7 8 7 7 8 9 10 10
9 8 7 7 6 4 3 3 5 5 2 3 8 7 4 3 4 2 2 0 3 4 2 2 3 3 1 2 0 5 7 5 3 4 7 9 10 10 7 6 6 6 3 4 1 2 3 3 2 5 7 7 8 7 6 5 6 6 5 3 3 3 5 5 4 6 2 2 6 7 7 11 11 11 12 6 2 5 9 9 10 10 8 9 10 11 12 12
11 9 8 7 6 5 4 3 4 5 3 4 9 5 2 3 3 1 2 3 7 5 2 1 1 2 2 1 3 6 4 3 3 2 8 8 9 8 1 4 5 2 1 3 2 2 4 4 7 10 8 7 6 6 6 6 5 5 4 1 2 3 6 6 3 4 1 2 5 4 5 11 12 12 12 6 3 8 10 11 12 12 11 10 11 14 12 10
13 11 9 7 6 6 5 3 4 6 4 4 7 4 2 4 4 2 1 1 7 7 6 2 2 4 4 2 5 4 2 3 1 1 7 7 5 5 1 4 5 3 1 2 3 3 3 4 12 8 5 6 5 6 7 6 5 4 3 2 2 3 4 6 3 5 2 3 4 5 5 10 12 12 12 10 10 10 10 11 13 12 12 12 12 12 11 9
16 14 12 9 7 6 5 3 5 7 5 3 5 4 2 3 5 3 3 1 5 4 4 5 4 5 3 2 6 6 1 3 4 4 8 7 3 3 4 5 5 4 2 4 5 4 2 6 10 5 8 7 5 5 7 6 3 3 4 3 3 3 1 4 4 4 1 1 2 4 6 8 10 11 13 12 10 8 9 12 13 12 13 15 12 9 10 12
18 17 15 12 9 7 6 5 6 7 6 5 7 7 5 6 6 3 2 1 4 4 2 5 5 5 6 4 8 9 2 3 5 5 11 10 4 3 5 5 5 4 4 7 7 6 5 6 2 5 8 8 6 4 7 5 3 3 5 6 4 5 6 6 4 4 3 3 2 3 6 7 6 8 11 8 4 6 8 10 13 13 13 13 10 9 11 12
17 18 18 15 11 10 9 7 6 7 7 5 9 10 7 7 6 4 2 2 3 5 3 3 3 5 10 7 9 9 1 3 4 6 13 13 8 4 3 3 4 4 6 5 6 4 7 5 4 6 4 6 7 4 6 7 4 4 5 9 10 8 7 4 3 5 4 4 3 2 3 6 4 6 10 6 6 8 7 7 12 14 11 9 9 12 12 10
14 17 19 18 15 13 11 5 6 8 6 5 7 8 9 7 6 6 4 3 3 5 1 3 3 7 11 8 8 6 2 5 4 6 14 14 8 5 3 2 2 4 6 5 3 3 4 2 5 6 5 5 6 3 6 7 5 3 5 8 10 7 4 3 1 2 1 4 3 2 1 6 6 7 10 6 6 11 10 10 13 12 10 8 9 10 10 9
11 15 20 21 19 19 12 3 6 7 3 4 6 8 13 10 6 5 3 3 4 4 4 2 1 6 9 8 10 8 2 5 1 5 9 10 6 3 3 5 2 2 4 4 1 2 4 3 3 6 6 5 5 4 6 8 7 3 4 5 7 6 6 5 5 3 3 3 4 2 3 3 7 8 7 4 7 11 12 14 15 12 11 10 9 10 9 9
9 13 18 23 24 23 15 7 9 9 5 1 2 9 17 13 8 4 4 0 4 2 5 2 1 4 3 5 10 6 2 2 4 3 1 4 4 3 3 7 6 6 5 6 5 3 4 7 7 7 5 4 6 5 8 11 6 4 3 6 6 6 5 5 6 3 1 3 5 1 4 2 7 6 4 2 4 9 12 15 15 13 12 10 10 9 8 8
8 10 16 23 26 26 21 14 9 7 8 2 2 12 20 14 7 4 4 3 3 1 2 1 3 2 3 4 5 2 2 2 2 2 2 4 2 4 3 7 5 7 4 3 5 2 1 5 7 7 5 6 4 2 7 10 4 3 5 7 6 6 5 5 4 3 3 3 8 6 6 3 6 5 1 2 3 7 11 12 12 12 11 9 9 8 6 5
7 8 12 20 26 26 21 15 11 7 5 2 4 17 19 9 4 4 2 4 1 0 1 1 2 2 6 8 2 2 2 2 1 1 3 1 2 6 2 3 6 5 1 4 3 3 1 1 2 3 4 5 4 3 1 5 5 5 6 6 6 6 5 4 2 4 3 6 8 7 11 7 5 3 4 4 5 7 9 9 8 9 10 8 6 6 6 5
6 6 8 19 28 29 19 10 14 13 7 7 12 16 12 3 3 5 6 2 1 1 1 1 1 4 11 12 5 2 2 1 1 4 3 1 2 4 1 1 4 4 2 5 4 3 3 1 2 2 2 4 7 5 4 3 4 5 5 5 4 3 4 4 4 4 1 6 5 2 7 9 7 6 5 6 7 8 9 8 9 10 10 8 5 5 5 4
6 5 6 16 28 30 20 13 19 18 11 13 15 8 3 2 2 7 6 2 1 3 4 3 3 5 10 10 5 5 4 1 3 6 6 4 5 5 5 6 5 2 2 7 4 3 2 4 3 3 1 4 6 5 5 4 2 4 4 6 3 2 3 3 3 0 3 7 3 1 1 4 8 9 8 10 12 12 10 9 10 11 10 9 6 5 4 3
6 6 6 12 24 30 24 18 21 19 16 19 15 4 2 4 7 10 8 4 2 2 2 3 2 4 8 7 3 4 3 1 5 4 2 5 6 7 5 5 7 3 2 6 3 0 3 5 2 1 2 3 7 6 3 1 3 5 5 6 4 2 1 3 4 1 4 6 3 1 1 3 5 6 11 17 17 14 11 10 11 11 11 10 7 5 4 4
8 9 9 9 17 28 26 20 21 23 23 21 12 4 3 5 6 8 10 7 1 2 2 3 5 5 6 5 4 5 3 3 6 4 2 5 6 6 6 7 7 2 3 3 3 5 5 6 5 7 3 6 10 8 6 6 5 5 4 5 5 5 5 4 4 3 5 5 3 3 2 3 4 4 8 12 11 10 9 9 9 9 10 8 7 6 6 6
9 8 11 12 13 20 25 21 22 28 27 16 6 5 8 8 5 5 8 7 1 2 3 2 6 6 5 2 3 5 5 2 4 4 3 6 6 8 7 8 10 6 4 5 2 3 6 8 6 3 1 10 11 5 5 7 3 2 3 5 3 5 5 2 3 5 2 3 4 3 4 5 5 6 8 7 8 8 8 8 7 11 11 6 6 8 7 7
10 10 9 13 13 15 22 23 25 30 24 11 4 6 8 8 6 4 5 6 4 3 4 2 4 4 5 2 2 5 3 2 4 4 2 4 4 6 7 7 11 12 9 8 3 2 3 5 5 3 1 5 6 2 4 3 3 2 3 4 4 4 6 2 2 1 4 2 5 3 4 5 3 7 9 7 9 9 8 7 8 11 10 5 7 8 7 7
11 10 7 11 14 15 18 23 29 28 16 7 6 7 6 5 5 4 3 4 5 5 5 2 2 4 5 4 3 6 3 1 4 4 3 3 3 6 8 6 8 14 14 8 3 3 5 4 4 1 1 2 1 2 3 3 3 6 4 6 2 2 3 3 1 3 4 2 5 2 5 5 2 5 6 2 8 12 11 10 10 11 8 6 8 8 7 7
11 9 8 12 16 16 16 24 30 21 7 5 8 8 6 6 6 6 5 3 6 7 7 6 5 4 5 6 5 5 5 3 5 5 4 3 4 7 10 6 5 14 16 7 2 3 4 3 5 2 2 3 4 3 2 4 2 5 4 4 4 2 2 2 2 2 1 3 5 4 4 4 5 6 3 4 9 11 13 12 11 12 10 8 9 9 6 5
9 5 5 8 12 16 19 25 25 13 3 6 8 7 6 9 9 6 5 3 5 8 9 9 5 3 4 6 4 5 6 7 7 6 4 5 5 6 11 9 5 10 13 10 6 2 3 3 4 2 1 2 3 2 5 2 2 3 2 2 2 2 4 3 3 3 3 3 4 4 4 4 7 7 7 10 11 10 12 11 10 11 10 8 8 8 6 5
4 2 3 1 9 19 23 23 16 7 5 6 7 6 5 7 6 5 8 6 3 4 7 8 6 4 4 4 3 4 6 7 8 7 5 6 5 4 7 10 5 4 8 10 7 1 2 4 4 3 3 1 2 4 8 9 6 4 4 4 3 1 2 1 1 2 4 3 2 3 6 8 6 5 9 12 11 11 12 9 8 9 8 8 8 6 5 5
0 2 3 3 15 24 23 15 7 4 5 4 6 6 4 3 5 7 11 7 2 1 3 4 7 7 6 4 3 4 5 5 6 6 4 6 7 5 5 9 8 6 6 6 7 5 3 3 4 1 0 4 5 4 5 8 8 8 7 8 9 6 4 3 3 1 2 2 4 3 7 11 5 4 8 10 7 8 8 7 8 9 7 7 6 6 6 6
2 4 2 3 21 30 16 4 4 4 5 6 8 7 3 1 3 6 9 5 2 2 1 1 6 7 6 6 6 5 5 4 6 6 5 8 10 7 6 8 10 11 9 6 8 8 3 3 3 3 4 6 6 3 1 4 4 3 4 6 7 7 7 6 5 3 2 1 2 3 4 10 3 3 5 5 4 5 5 5 7 9 7 7 7 5 5 5
3 5 5 7 17 29 12 2 6 5 5 7 9 7 3 2 2 4 7 6 5 3 1 2 4 6 6 6 6 7 7 5 6 8 6 7 10 8 6 8 9 11 9 4 4 4 2 2 3 2 3 3 5 5 2 1 0 2 4 2 4 6 5 5 5 4 4 4 3 3 5 9 3 1 3 3 2 4 4 5 5 9 7 6 7 6 4 5
2 3 5 11 12 19 9 4 7 7 7 8 9 7 3 1 4 6 7 10 9 6 5 5 3 4 5 4 5 8 10 7 6 10 8 5 7 6 7 11 10 10 8 5 5 6 4 4 5 3 2 3 4 4 2 1 2 3 4 3 5 7 5 3 1 2 2 8 9 6 8 8 3 3 2 2 3 4 6 5 6 6 8 6 6 5 3 4
2 2 3 7 12 10 5 4 6 7 9 10 10 9 6 4 4 7 10 11 10 7 5 4 4 4 3 2 2 5 10 9 7 7 8 5 4 3 5 11 11 10 8 4 4 7 6 5 7 7 7 8 7 5 5 4 3 2 3 5 6 8 9 6 2 3 6 9 9 8 11 7 3 6 5 3 3 3 6 6 3 5 8 8 7 5 4 4
1 2 2 3 5 6 4 4 4 5 8 10 9 9 11 10 5 6 9 8 8 9 7 3 3 4 4 4 3 3 8 11 7 4 5 6 4 2 4 10 11 12 11 4 4 4 3 4 9 11 12 13 11 6 4 8 7 6 8 9 9 9 11 9 4 6 8 4 5 13 16 12 7 4 4 5 5 5 5 6 6 6 8 8 8 6 5 5
2 4 4 2 2 5 7 7 5 5 6 8 7 7 13 15 9 5 7 7 8 10 9 5 5 7 7 8 7 5 6 7 6 6 6 6 4 3 2 7 9 13 12 6 4 5 2 3 9 13 14 17 14 7 7 10 11 13 13 12 12 11 11 11 12 15 9 4 10 16 12 15 18 10 7 8 6 6 6 6 8 8 7 7 7 6 5 5
4 3 2 1 1 4 7 8 8 8 8 7 4 5 11 15 13 8 6 5 7 9 8 6 8 11 12 12 10 8 7 6 6 8 8 6 3 1 1 2 6 9 8 5 4 5 3 4 8 10 13 18 17 8 10 10 9 12 14 15 15 14 15 16 20 23 14 8 17 15 10 15 22 13 11 11 8 8 9 8 7 5 5 7 7 6 6 6
3 2 2 2 2 3 3 4 4 7 10 8 3 4 7 11 16 13 6 5 6 9 10 9 11 15 16 14 11 9 10 9 8 9 8 6 4 3 2 4 4 2 4 4 3 2 3 6 8 9 10 16 18 10 10 10 7 7 11 15 16 17 19 22 24 26 19 14 21 17 9 17 20 10 10 11 9 9 8 6 5 4 7 9 8 7 8 8
3 1 1 1 2 4 4 4 3 4 7 8 5 6 7 8 13 11 8 9 9 8 12 15 17 16 16 15 13 13 14 12 13 14 11 8 6 5 5 5 2 3 4 4 2 1 3 6 7 7 7 11 18 15 10 10 9 9 9 10 13 18 23 26 24 20 14 15 22 20 15 19 14 6 8 8 7 8 8 9 9 9 10 10 8 9 9 9
7 2 1 1 2 4 4 4 4 4 4 5 4 6 9 11 13 10 7 11 14 11 13 18 20 15 13 15 16 16 16 15 16 17 12 9 9 7 5 5 3 3 4 5 3 3 4 3 2 3 5 11 17 18 13 10 10 11 11 11 17 20 21 19 16 14 14 17 21 18 16 18 9 6 7 7 8 9 11 12 12 11 10 10 11 12 11 10
10 6 3 1 2 5 4 2 4 5 5 5 5 6 8 8 9 9 6 6 11 13 13 17 20 15 11 15 19 20 21 18 17 14 7 5 7 6 4 5 6 7 6 5 3 3 6 4 2 3 5 12 17 14 9 7 7 10 14 20 23 21 16 11 11 17 20 18 16 14 16 20 10 5 7 9 8 10 13 12 12 12 11 10 11 11 11 11
Wind_Direction
175 167 168 165 162 173 205 210 204 218 204 200 222 249 252 244 252 253 254 261 259 264 274 283 290 297 305 318 329 330 326 321 308 296 292 268 284 279 298 345 7 7 7 6 11 26 20 14 4 14 57 49 11 345 14 22 55 56 78 96 151 179 195 188 177 192 172 187 215 228 188 141 171 216 174 35 39 45 15 342 321 313 290 225 288 285 158 160
185 184 172 162 171 170 165 124 307 255 207 202 225 249 249 243 252 252 252 260 259 264 279 286 291 296 307 324 329 330 326 318 305 296 328 283 288 281 272 330 21 17 19 30 32 42 45 352 345 21 50 42 351 349 26 12 55 85 107 101 202 196 201 197 175 188 165 129 183 196 165 153 182 171 141 187 328 9 117 295 338 328 292 275 55 147 153 159
190 194 178 169 168 151 132 73 14 334 288 218 237 250 248 246 253 255 256 262 260 266 282 287 291 301 315 325 331 331 327 331 336 322 72 30 299 184 138 103 65 40 37 45 40 37 57 347 0 42 49 50 0 1 40 11 28 134 108 96 233 209 220 219 180 193 198 141 146 177 168 176 224 171 164 179 167 340 212 229 253 270 254 224 178 157 159 165
200 189 175 175 172 173 174 85 354 344 350 341 288 258 247 248 257 265 267 269 272 277 284 290 295 309 320 325 333 325 342 36 319 226 94 75 113 123 117 107 81 59 45 46 45 36 57 80 57 55 62 44 342 16 50 350 347 112 105 162 222 181 188 218 192 204 201 159 142 154 124 158 248 175 150 146 143 272 245 225 205 217 220 197 198 181 174 175
199 187 173 173 173 188 189 220 284 0 355 349 339 294 264 276 278 282 282 285 289 289 288 292 301 316 324 332 332 320 7 50 261 224 83 113 121 120 113 98 80 66 46 41 40 44 55 59 58 48 52 44 348 27 36 315 69 72 58 189 198 148 113 204 194 186 159 133 117 124 144 180 194 139 147 151 179 238 231 229 217 216 202 181 184 182 181 184
197 188 183 177 183 206 186 334 314 345 340 346 350 341 327 298 307 310 296 327 316 302 297 296 312 320 329 339 330 334 63 67 270 184 123 135 126 124 108 84 71 57 40 42 34 47 49 36 55 53 46 52 8 49 1 307 50 97 346 300 214 197 148 185 181 174 132 119 138 155 178 137 96 271 182 170 215 226 217 236 236 238 208 178 168 168 178 190
203 190 194 195 207 220 102 3 331 333 336 348 347 342 336 317 329 332 1 40 1 331 313 307 322 323 341 345 334 18 82 256 270 161 160 139 136 125 94 68 62 46 39 47 34 65 71 42 66 117 84 70 159 95 350 311 35 90 113 300 219 201 234 328 94 143 120 126 178 173 124 120 166 226 50 214 239 235 245 268 253 246 193 168 160 173 189 194
217 200 201 213 232 229 146 47 357 350 346 343 342 339 331 323 326 346 61 51 34 44 318 317 337 347 355 357 38 29 358 268 205 163 163 146 142 114 86 62 57 47 58 53 37 108 95 56 104 154 86 80 168 110 345 334 30 65 140 229 183 203 268 309 91 99 96 129 154 112 128 229 198 189 322 248 250 249 269 340 71 162 154 166 176 187 196 196
234 215 201 215 229 253 229 85 19 349 359 352 341 334 321 322 324 339 49 37 58 83 66 40 358 18 17 58 85 56 280 267 181 170 164 158 140 98 75 60 55 47 67 56 44 93 97 117 176 185 144 150 134 85 343 50 18 144 145 197 80 335 319 338 101 72 55 176 86 120 250 292 260 245 270 255 253 239 149 57 80 127 151 187 193 195 196 197
255 299 219 218 204 213 276 32 11 347 10 358 345 344 323 311 300 322 7 31 68 83 76 84 49 55 69 85 88 125 271 298 193 181 163 164 145 106 64 52 46 50 72 62 54 66 81 165 170 150 139 124 105 70 346 89 141 158 120 125 84 335 319 12 21 10 21 269 137 180 248 291 332 320 254 268 289 124 109 77 97 158 183 204 203 207 203 204
273 323 359 329 219 179 265 331 349 336 356 357 351 347 330 310 269 255 263 109 102 92 85 90 78 78 87 88 110 194 271 335 198 181 168 169 146 108 55 44 45 67 83 70 64 62 78 152 144 124 124 102 106 28 357 122 118 96 111 142 359 345 324 43 21 322 351 209 166 158 247 301 0 275 236 271 346 130 141 176 222 200 217 219 216 223 213 218
278 297 352 356 353 5 347 348 328 318 334 351 346 339 340 315 268 247 183 139 127 108 101 93 83 93 73 69 139 213 268 321 204 181 173 171 143 108 60 53 57 73 93 85 80 65 67 141 118 92 315 140 127 20 83 120 95 61 75 156 315 356 0 314 337 273 183 172 178 136 320 295 252 231 243 325 12 85 140 206 235 228 240 240 233 239 227 229
272 287 331 355 3 9 357 347 346 330 326 339 342 348 353 324 288 288 220 150 145 128 115 103 85 87 84 46 229 222 253 264 210 188 173 165 141 109 76 77 73 72 90 96 95 67 61 128 108 100 123 106 117 201 106 54 54 323 42 84 331 1 342 305 28 69 157 158 182 136 269 273 250 247 261 355 147 119 170 232 240 239 250 250 242 245 243 237
261 272 295 339 0 11 10 7 4 354 340 338 347 357 355 347 330 324 47 137 148 131 113 105 94 90 89 252 260 283 257 238 199 192 179 173 147 116 96 90 83 83 89 92 88 65 67 105 96 94 93 85 124 103 41 11 25 19 4 49 22 9 286 298 353 131 146 157 79 111 230 267 270 266 285 320 179 152 218 240 239 243 248 247 244 244 248 241
256 262 271 293 340 7 13 17 13 5 354 347 355 1 5 60 103 66 90 118 118 101 104 101 93 91 67 288 285 326 266 226 197 191 179 176 156 127 112 103 94 91 90 89 87 71 73 95 81 70 21 12 62 68 27 356 15 33 348 314 352 150 271 305 310 154 139 16 53 108 227 272 272 270 304 327 184 173 228 246 246 246 244 243 246 242 247 253
251 253 259 261 291 343 357 1 6 7 357 353 3 9 40 96 99 97 110 106 95 83 86 81 70 88 85 283 300 318 267 205 188 178 171 171 162 142 123 110 93 89 93 89 91 77 57 64 65 59 110 44 67 80 44 12 350 0 67 249 281 170 281 315 328 271 313 56 39 167 230 277 280 275 315 355 163 181 239 257 252 242 244 242 243 244 246 257
247 248 252 254 268 297 337 347 359 1 356 13 25 32 61 79 88 102 111 103 98 84 80 82 70 79 90 261 274 281 242 171 172 164 161 152 143 143 128 104 83 87 90 79 80 66 32 42 83 11 49 54 82 94 60 346 291 319 24 233 243 200 220 298 314 308 20 83 221 240 230 252 267 277 298 303 162 180 232 252 252 242 244 241 241 248 244 246
247 249 247 250 259 278 322 334 349 349 351 45 70 94 87 79 83 105 121 113 96 72 66 70 69 66 274 260 227 238 117 139 155 149 148 138 130 136 123 99 93 82 62 45 45 42 18 28 70 47 25 16 65 103 138 221 212 202 189 192 257 242 212 255 282 260 94 68 227 233 255 258 267 275 280 265 167 187 234 247 258 254 247 244 242 242 240 240
248 251 247 249 251 266 304 320 338 337 354 86 114 115 97 74 73 100 114 111 107 100 151 225 132 135 226 260 272 95 95 120 141 144 138 131 129 119 100 87 88 79 73 76 358 23 66 54 61 93 225 225 186 167 186 198 161 156 171 152 175 224 252 236 250 261 215 165 241 230 241 258 266 270 274 271 171 200 248 259 265 261 249 245 241 241 239 235
249 249 249 250 242 250 280 311 327 320 334 125 134 120 101 67 48 16 356 2 196 153 135 232 204 175 227 311 1 111 106 99 112 147 140 139 136 114 78 44 48 53 87 158 197 7 92 112 166 213 213 203 198 188 165 151 125 117 122 125 175 202 270 254 247 287 250 176 254 238 239 262 267 266 269 274 181 222 254 259 258 253 246 243 238 239 237 235
249 246 249 253 245 244 251 292 314 308 309 159 146 121 143 147 90 308 284 280 255 223 193 262 277 257 273 266 180 147 117 62 32 127 149 150 142 134 57 24 73 55 300 173 147 31 72 142 224 229 207 189 183 156 125 113 93 89 123 145 272 214 253 257 237 300 315 175 269 288 273 268 267 268 271 270 234 241 243 244 252 248 243 241 237 241 239 241
251 247 243 244 246 245 242 270 293 297 300 184 159 121 151 154 112 94 114 302 277 246 215 229 340 291 272 231 199 181 65 69 20 242 167 146 131 167 184 68 126 176 281 122 109 39 55 219 240 228 154 118 104 124 128 119 100 85 114 133 272 250 273 283 291 332 356 181 273 324 301 271 270 273 272 260 245 245 240 239 249 248 246 243 236 240 242 246
256 251 242 233 231 235 235 250 274 287 285 213 181 145 111 123 112 75 84 90 298 279 203 205 232 250 252 270 210 182 112 159 181 236 188 149 114 176 138 106 139 140 134 172 156 141 160 248 250 194 137 123 92 106 117 109 114 133 139 149 241 255 277 280 299 337 354 185 278 318 303 278 272 273 268 259 251 258 254 248 252 247 246 248 243 238 234 237
255 253 244 232 220 215 218 229 255 273 266 247 226 192 130 115 129 97 70 62 300 291 240 208 204 202 205 221 189 172 185 195 171 204 186 156 123 153 153 141 129 125 187 194 167 174 217 244 231 124 146 149 119 117 132 141 226 231 186 182 212 229 215 229 288 328 339 2 6 332 309 285 269 268 266 275 314 294 263 254 260 254 245 249 255 250 235 232
250 252 246 232 219 206 201 208 232 247 250 255 240 208 154 126 127 109 79 36 297 293 304 224 202 206 199 175 167 166 142 242 215 194 178 163 145 141 167 144 122 178 205 172 153 215 249 234 120 109 145 146 132 159 175 167 201 274 229 202 211 220 221 237 351 7 352 337 342 18 309 285 299 277 263 288 337 300 271 254 258 259 255 245 247 250 241 234
242 247 246 235 220 196 184 201 230 228 230 251 251 208 172 159 125 110 91 45 285 275 296 185 177 195 191 160 152 140 63 261 246 164 166 171 161 121 142 151 77 199 190 147 154 229 243 221 100 120 144 147 148 195 220 175 149 276 249 205 210 206 207 230 110 63 294 267 296 55 182 273 306 282 262 269 281 276 274 268 263 264 265 246 238 247 243 235
241 242 243 235 216 191 178 186 201 187 187 257 264 204 185 176 142 121 82 25 279 214 155 200 182 171 180 165 152 137 197 241 121 132 165 175 181 76 127 172 109 191 166 124 230 250 184 171 95 116 117 134 165 212 221 168 138 240 248 168 170 175 194 201 159 179 238 264 308 38 127 263 287 274 272 263 255 271 275 270 269 264 260 255 247 246 242 234
251 243 238 231 217 204 201 193 172 171 184 243 336 191 183 171 157 121 90 143 275 156 144 234 171 142 138 159 157 137 221 210 121 192 206 137 179 50 124 191 170 181 172 146 212 265 163 179 184 162 138 168 194 217 190 157 149 243 207 125 134 151 166 140 133 183 329 350 291 249 127 250 266 264 311 338 248 267 268 262 264 265 263 262 258 254 251 241
255 243 233 226 219 211 211 206 183 180 198 220 31 175 172 165 157 86 80 199 259 99 144 126 135 128 59 137 177 97 36 35 113 238 16 98 156 49 153 198 148 163 196 177 208 265 130 200 197 163 164 200 204 242 181 160 174 203 128 96 79 79 81 86 114 136 57 322 253 203 150 233 268 238 238 338 235 244 255 257 261 266 268 265 266 272 272 261
258 245 232 219 208 200 201 208 205 184 170 171 163 164 162 156 130 110 181 218 220 205 204 115 166 168 124 142 212 340 74 26 15 76 45 82 21 30 132 160 89 121 257 324 265 256 307 280 213 165 178 184 132 69 144 145 145 140 107 68 48 38 42 53 58 85 73 277 259 201 174 193 267 252 196 222 221 216 237 257 268 274 278 273 272 283 278 267
272 259 233 209 202 197 191 199 202 189 165 146 148 152 153 114 76 165 204 225 29 186 123 128 185 136 149 161 184 196 124 34 167 140 128 162 68 43 72 112 72 72 0 303 283 305 333 334 258 242 177 121 98 69 27 58 106 108 88 79 65 351 9 23 356 49 135 257 279 231 176 181 236 257 230 245 256 238 230 242 257 265 273 273 266 275 273 254
288 277 237 211 208 202 197 206 200 190 182 155 138 129 147 131 166 212 208 82 5 207 158 179 204 168 168 171 173 171 144 100 184 165 154 158 165 180 192 185 162 100 276 240 249 344 288 235 263 309 249 137 113 84 37 21 55 88 103 110 100 333 355 345 300 83 221 254 281 353 142 193 236 252 254 258 260 252 235 228 238 248 261 269 257 254 272 252
293 281 261 223 213 206 204 213 202 185 173 158 142 87 32 164 194 212 205 175 204 234 140 128 123 135 152 159 182 171 129 154 184 177 156 147 175 207 229 220 185 160 197 201 190 239 276 289 282 204 265 181 153 153 150 190 179 155 150 142 137 145 159 262 265 274 264 268 273 239 234 254 260 260 244 240 244 247 242 235 233 238 250 263 268 263 272 258
299 272 267 250 223 213 209 209 197 177 161 153 145 107 129 190 213 213 215 214 204 19 41 96 94 110 148 170 211 173 151 220 179 150 142 144 167 212 231 236 214 156 96 146 171 183 220 279 217 179 206 184 181 189 164 138 159 183 155 137 159 166 170 217 224 223 258 283 296 267 232 199 201 248 241 235 253 265 259 254 249 251 249 255 281 283 267 253
319 289 265 260 246 222 211 203 189 172 158 151 154 155 169 198 214 209 220 222 220 37 25 48 90 117 183 245 283 187 169 219 172 136 157 168 187 206 200 209 204 169 138 179 214 168 203 260 245 226 198 168 182 197 119 109 140 214 114 118 194 192 166 205 206 178 197 308 299 240 225 215 207 274 272 246 265 273 266 271 267 264 257 241 261 268 262 255
324 321 278 252 253 232 213 203 183 168 159 149 160 181 193 206 187 175 203 201 199 128 92 62 79 119 204 228 263 218 181 117 150 148 195 205 223 213 202 213 199 187 185 187 195 145 180 269 286 336 3 169 185 188 124 136 177 160 141 181 213 171 139 140 257 57 66 302 271 208 240 287 314 285 272 250 261 270 273 276 258 257 261 245 246 250 249 251
324 325 295 254 248 233 218 204 183 170 162 152 172 192 210 216 176 160 188 181 169 144 132 181 169 154 194 204 216 214 193 94 150 171 196 200 243 215 208 231 198 196 206 195 208 198 166 254 299 63 180 272 311 114 74 24 129 132 186 205 164 89 108 114 220 346 41 256 273 235 239 279 297 272 293 277 253 258 260 259 253 259 261 248 254 250 238 238
331 323 290 266 244 227 219 202 183 169 155 165 194 205 198 210 201 178 176 145 143 166 191 217 203 165 176 196 210 190 179 181 174 188 189 184 242 213 192 212 205 204 210 194 228 254 157 229 306 40 178 299 0 102 79 354 86 136 185 184 124 141 207 109 157 217 209 248 282 284 259 254 209 229 267 220 224 239 250 251 248 255 252 241 255 255 240 231
334 324 290 270 228 214 209 191 176 165 160 179 202 212 193 209 216 188 172 163 153 176 205 219 208 180 182 183 177 165 184 190 171 180 190 182 234 219 182 194 213 206 202 185 199 240 128 201 271 343 273 313 22 147 191 209 57 73 115 132 107 162 181 161 158 169 179 230 277 301 304 256 213 207 204 214 219 219 233 243 242 247 246 235 245 251 233 216
344 296 281 253 191 196 191 178 168 177 195 195 207 205 197 204 201 193 197 194 168 173 205 213 193 188 199 175 151 172 194 196 175 185 205 190 220 249 192 186 181 176 181 181 196 193 94 206 238 324 342 160 189 220 197 177 158 149 163 172 186 151 109 162 197 130 141 169 209 293 295 267 232 186 190 208 220 218 217 223 237 250 250 235 235 242 230 213
19 241 270 213 185 180 171 164 169 197 200 228 231 215 220 197 160 195 208 198 193 209 194 194 190 198 195 168 188 194 183 191 183 185 215 205 208 240 212 181 160 135 131 161 199 204 180 194 186 165 232 200 221 248 205 188 184 179 185 193 192 175 143 176 240 209 119 156 179 190 277 270 240 182 203 205 212 229 213 197 231 253 258 256 245 230 229 220
220 216 275 228 182 171 156 158 189 192 203 218 226 216 201 148 146 191 201 195 233 261 6 196 201 205 198 189 199 179 161 192 193 186 214 214 208 218 216 187 164 151 145 163 203 202 158 123 154 188 217 221 241 277 199 213 228 203 206 204 189 182 170 171 208 213 149 225 182 123 270 272 246 170 225 217 196 235 215 185 237 256 249 256 257 238 241 239
236 224 302 311 187 169 159 236 191 197 225 215 227 225 183 156 177 174 180 191 206 196 196 229 204 203 211 200 184 170 173 196 198 200 221 226 221 220 194 173 159 153 155 167 206 191 115 126 186 241 298 303 306 327 8 84 153 234 241 200 165 196 185 158 184 180 161 203 181 123 250 265 276 155 242 255 244 260 242 189 230 268 269 257 252 246 241 242
274 235 286 299 228 186 180 215 194 205 220 218 230 224 216 243 183 167 176 189 198 195 202 223 207 206 219 190 170 183 188 191 202 211 216 220 233 225 175 167 166 167 179 188 181 175 171 185 193 208 276 310 314 313 305 236 166 222 235 197 189 193 158 114 130 116 198 218 186 177 241 251 282 318 302 312 315 290 261 217 191 243 269 269 259 253 231 231
297 251 223 265 254 227 216 220 209 213 212 219 229 217 222 247 184 183 193 194 200 202 206 217 184 181 205 189 176 184 187 197 211 212 210 218 253 264 186 177 176 189 210 212 169 172 176 183 187 193 217 232 232 231 226 191 150 239 227 194 203 188 169 182 173 143 231 224 177 197 240 246 319 333 323 313 308 286 273 275 248 226 249 264 268 257 227 223
261 257 205 219 244 241 259 264 235 226 213 214 222 213 216 226 212 191 196 201 206 203 212 231 154 158 187 195 203 197 200 213 216 196 206 215 233 277 198 179 184 205 212 187 131 151 158 187 195 198 211 225 231 229 180 140 143 207 212 188 199 199 187 194 190 200 218 202 190 222 233 245 263 280 282 273 254 237 249 285 295 262 247 257 262 253 228 217
232 236 207 190 215 222 246 255 231 227 227 214 209 200 210 220 226 207 193 198 200 200 216 231 185 186 195 193 205 215 208 214 213 206 212 209 223 287 201 168 197 216 209 186 145 135 119 211 208 209 219 232 239 220 167 153 167 199 202 190 198 201 191 194 211 222 205 149 244 235 215 242 252 233 230 249 241 242 245 245 255 253 246 250 254 254 245 235
225 240 225 252 282 210 226 245 236 233 243 241 225 211 212 214 217 216 194 189 197 198 209 218 206 209 208 201 208 216 207 206 218 223 221 210 207 285 1 195 224 218 196 189 182 151 159 219 216 218 230 243 250 224 174 180 186 190 193 194 197 194 194 203 219 228 210 193 246 240 172 223 248 234 221 229 214 222 231 223 230 239 244 250 244 239 247 248
208 250 275 287 284 240 251 280 271 243 236 235 240 240 228 216 215 214 187 175 206 205 204 214 215 215 216 212 210 216 214 209 220 228 222 214 192 160 203 247 254 208 148 178 215 147 173 224 222 221 234 248 254 235 183 193 208 199 195 197 196 193 199 209 220 228 222 221 248 252 215 237 252 233 216 221 208 218 233 235 240 233 238 245 240 234 242 242
194 198 221 258 272 275 297 304 303 280 242 225 220 231 238 236 231 222 192 188 203 200 200 213 220 216 214 215 214 221 222 216 223 228 217 208 208 192 205 217 198 89 125 176 238 89 183 226 227 223 239 256 257 249 218 207 220 228 220 206 203 203 207 214 220 224 225 232 247 253 256 260 257 201 203 218 202 222 247 251 248 242 243 248 247 241 240 239
215 216 142 61 277 251 265 262 245 265 254 224 213 222 230 237 240 243 232 213 210 204 197 208 221 222 213 213 215 224 228 221 226 233 219 204 215 210 205 208 174 144 164 181 176 142 179 222 250 213 232 247 251 253 250 241 239 242 238 221 214 213 214 216 218 216 213 223 239 247 252 258 246 150 188 215 188 209 234 238 242 244 239 239 241 241 239 239
217 240 223 163 263 238 239 265 238 236 245 235 223 227 237 240 233 234 252 244 224 221 207 202 214 221 219 216 213 218 226 224 229 239 222 196 234 233 213 215 197 183 184 178 167 156 169 186 205 184 214 246 250 250 245 236 235 238 233 225 220 218 218 218 221 223 216 214 225 231 236 248 244 156 205 224 191 207 229 229 235 242 236 232 237 241 242 242